Simultaneous Nadir Overpasses (SNOs) Predictions

Prediction of SNOs between GOES-16 and NPP Satellite Orbit:

Table of predicted SNOs for the next 14.0 days since TLE Epoch: 1/26/2017
Index Date Time (GOES-16) GOES-16 Lat,Lon NPP Lat,Lon Distance(km) Time Diff (sec)
1 01/27/2017 19:24:02 -0.03, -89.49 -0.19, -90.06 65.69 80
2 01/28/2017 19:07:57 -0.03, -89.49 0.86, -85.53 451.73 80
3 01/30/2017 07:29:44 0.04, -89.49 0.36, -90.79 149.12 80
4 01/31/2017 07:08:19 0.04, -89.50 -0.70, -86.27 368.25 80
5 02/01/2017 19:30:14 -0.04, -89.53 -0.51, -91.57 232.69 80
6 02/02/2017 19:14:10 -0.04, -89.54 0.55, -87.04 284.95 80
7 02/04/2017 07:35:56 0.04, -89.53 0.67, -92.30 315.27 80
8 02/05/2017 07:14:31 0.04, -89.54 -0.33, -87.76 202.26 80
9 02/06/2017 19:36:27 -0.05, -89.57 -0.82, -93.07 398.73 80
10 02/07/2017 19:20:22 -0.05, -89.58 0.18, -88.54 119.11 80
11 02/09/2017 07:42:08 0.06, -89.59 1.03, -93.80 480.28 80




NCC Satellite Simultaneous Nadir Overpasses (SNOs) Prediction Service
